Home   Weather   Istanbul   Past weeks

Flag for Turkey Past Weather in Istanbul, Turkey — Yesterday and Last 2 Weeks

Now
59 °F

Clear.


Feels Like: 59 °F
Forecast: 53 / 64 °F
Wind: 2 mph from Northwest

Location: Istanbul Ataturk Airport

Current Time: Apr 30, 2017 at 6:46:46 am

Latest Report: Apr 30, 2017 at 5:50 am


Visibility: 10 mi

Pressure: 29.89 "Hg

Humidity: 63%

Dew Point: 46 °F

Location of IstanbulLocation

Past Weather in Istanbul — Graph

°F

Istanbul Temperature Yesterday

Maximum temperature yesterday: 79 °F (at 4:50 pm)
Minimum temperature yesterday: 57 °F (at 5:50 am)
Average temperature yesterday: 69 °F

High & Low Weather Summary for the Past Weeks

 TemperatureHumidityPressure
High79 °F (Apr 29, 4:50 pm)94% (Apr 18, 2:20 am)30.27 "Hg (Apr 18, 2:20 am)
Low45 °F (Apr 22, 3:20 am)23% (Apr 25, 12:50 pm)29.74 "Hg (Apr 20, 1:20 pm)
Average58 °F58%30.01 "Hg
* Reported Apr 15 5:20 am — Apr 30 5:20 am, Istanbul, Weather by CustomWeather, © 2017

Note: Actual official high and low records may vary slightly from our data, if they occured in-between our weather recording intervals... More about our weather records

Advertising

Istanbul Weather History for the Previous 24 Hours

Scroll right to see more
 ConditionsComfort  
Time TempWeatherWind HumidityBarometerVisibility
5:20 am
Sun, Apr 30
59 °FClear.2 mph59%29.86 "Hg10 mi
4:50 am59 °FClear.3 mph59%29.86 "Hg10 mi
4:20 am59 °FClear.6 mph59%29.86 "Hg10 mi
3:50 am63 °FClear.No wind52%29.86 "Hg10 mi
3:20 am63 °FClear.No wind52%29.86 "Hg10 mi
2:50 am64 °FPassing clouds.5 mph46%29.86 "HgN/A
2:20 am64 °FClear.7 mph46%29.86 "Hg10 mi
1:50 am64 °FClear.8 mph49%29.86 "Hg10 mi
1:20 am66 °FClear.7 mph46%29.86 "Hg10 mi
12:50 am68 °FPassing clouds.5 mph43%29.89 "HgN/A
12:20 am72 °FPassing clouds.5 mph36%29.86 "HgN/A
11:50 pm
Sat, Apr 29
70 °FClear.No wind38%29.86 "Hg10 mi
11:20 pm72 °FClear.3 mph36%29.86 "Hg10 mi
10:20 pm75 °FPassing clouds.6 mph29%29.89 "HgN/A
9:50 pm75 °FPassing clouds.6 mph31%29.89 "HgN/A
9:20 pm79 °FPassing clouds.8 mph28%29.86 "HgN/A
8:50 pm75 °FClear.7 mph34%29.86 "Hg10 mi
8:20 pm79 °FPassing clouds.7 mph28%29.86 "HgN/A
7:50 pm79 °FPassing clouds.7 mph26%29.86 "HgN/A
7:20 pm75 °FPassing clouds.5 mph29%29.86 "HgN/A
6:50 pm73 °FSunny.6 mph29%29.86 "Hg10 mi
6:20 pm75 °FSunny.5 mph27%29.86 "Hg10 mi
5:50 pm77 °FPassing clouds.6 mph28%29.89 "HgN/A
5:20 pm79 °FSunny.5 mph24%29.89 "Hg10 mi
4:50 pm79 °FPassing clouds.5 mph26%29.89 "HgN/A
4:20 pm77 °FPassing clouds.5 mph28%29.89 "HgN/A
3:20 pm77 °FPassing clouds.5 mph30%29.92 "HgN/A
2:50 pm75 °FPassing clouds.6 mph36%29.92 "HgN/A
2:20 pm75 °FPassing clouds.5 mph34%29.95 "HgN/A
1:50 pm75 °FPassing clouds.6 mph31%29.95 "HgN/A
1:20 pm73 °FPassing clouds.7 mph31%29.95 "HgN/A
12:50 pm73 °FPassing clouds.7 mph33%29.95 "HgN/A
12:20 pm73 °FPassing clouds.6 mph36%29.95 "HgN/A
11:50 am72 °FPassing clouds.5 mph36%29.95 "HgN/A
11:20 am72 °FPassing clouds.5 mph36%29.95 "HgN/A
10:20 am72 °FPassing clouds.5 mph38%29.95 "HgN/A
9:50 am72 °FPassing clouds.5 mph38%29.95 "HgN/A
9:20 am68 °FPassing clouds.3 mph43%29.95 "HgN/A
8:50 am66 °FPassing clouds.5 mph52%29.95 "HgN/A
8:20 am63 °FPassing clouds.6 mph59%29.95 "HgN/A
7:50 am63 °FPassing clouds.5 mph68%29.95 "HgN/A
7:20 am61 °FSunny.3 mph72%29.95 "Hg10 mi
6:50 am57 °FSunny.No wind82%29.95 "Hg10 mi
6:20 am57 °FSunny.3 mph77%29.95 "Hg10 mi
Weather by CustomWeather, © 2017

See weather overviewHow to use our weather pages